Regional Weather Roundup
Issued by NWS

Home | Current Version | Previous Version | Text Only | Print | Product List | Glossary Off
Versions: 1 2 3 4 5 6 7 8 9 10 11 12 13 14 15 16 17 18 19 20 21 22 23 24 25 26 27 28 29 30 31 32 33 34 35 36 37 38 39 40 41 42 43 44 45 46 47 48 49 50

271
ASUS43 KOAX 131610
RWRNE

WEATHER ROUNDUP FOR NEBRASKA
NATIONAL WEATHER SERVICE OMAHA NE
1000 AM CST SAT FEB 13 2016

NOTES: SATELLITE DATA IS BEING USED TO AUGMENT CLOUD COVER ABOVE
       12000 FEET.
       "FAIR" INDICATES FEW OR NO CLOUDS BELOW 12,000 FEET WITH NO
       SIGNIFICANT WEATHER AND/OR OBSTRUCTIONS TO VISIBILITY.

  * THESE STATIONS DO NOT REPORT WEATHER SUCH AS RAIN...SNOW OR FOG.

NEZ001>004-019>022-054>056-131700-
NEBRASKA PANHANDLE

CITY           SKY/WX    TMP DP  RH WIND       PRES   REMARKS
SCOTTSBLUFF    CLOUDY    33  30  88 SE9       30.04F WCI  25
ALLIANCE       CLOUDY    31  30  96 S16       30.04F WCI  20
CHADRON        CLOUDY    38  31  76 S12       30.01F WCI  30
KIMBALL        FOG       31  31 100 SW10      30.05F VSB<1/4 WCI  22
SIDNEY         CLOUDY    30  29  96 S15       30.08F FOG     WCI  19
$$

NEZ057>060-069>072-079>082-131700-
SOUTHWEST NEBRASKA

CITY           SKY/WX    TMP DP  RH WIND       PRES   REMARKS
NORTH PLATTE   CLOUDY    23  20  88 S18G29    30.24F WCI   9
IMPERIAL       CLOUDY    25  24  96 S18       30.19F WCI  11
LEXINGTON      CLOUDY    22  17  80 S18       30.32F WCI   7
MCCOOK         CLOUDY    21  17  84 SE18      30.29F WCI   6
OGALLALA       CLOUDY    28  26  93 S15       30.17F FOG     WCI  17
$$

NEZ005>010-023>029-035>040-094-131700-
NORTH CENTRAL NEBRASKA

CITY           SKY/WX    TMP DP  RH WIND       PRES   REMARKS
VALENTINE      CLOUDY    23  20  88 S20       30.18F WCI   8
AINSWORTH      CLOUDY    21  15  76 S21       30.22F WCI   6
BROKEN BOW     CLOUDY    18  14  84 S20       30.29F WCI   2
O`NEILL        CLOUDY    16  10  76 SE18G25   30.35F WCI   0
ORD            CLOUDY    17   7  64 S13       30.35F WCI   4
THEDFORD       CLOUDY    24  23  96 S12G20    30.20F FOG     WCI  13
$$

NEZ041-046>049-061>064-073>077-083>087-131700-
SOUTH CENTRAL NEBRASKA

CITY           SKY/WX    TMP DP  RH WIND       PRES   REMARKS
GRAND ISLAND   CLOUDY    16   9  74 SE17      30.42F WCI   0
AURORA         CLOUDY    17  10  73 SE13      30.44S WCI   4
HASTINGS       CLOUDY    18   9  68 SE14      30.40F WCI   4
HEBRON         CLOUDY    20   6  55 SE8       30.48F WCI  10
HOLDREGE       CLOUDY    20  14  78 S15       30.35F WCI   6
KEARNEY *      CLOUDY    18  12  79 SE14      30.38F WCI   4
YORK           CLOUDY    18   9  68 SE12      30.47R WCI   5
$$

NEZ011>018-030>034-042>045-131700-
NORTHEAST NEBRASKA

CITY           SKY/WX    TMP DP  RH WIND       PRES   REMARKS
NORFOLK        CLOUDY    12   2  64 SE14      30.46F WCI  -3
ALBION         CLOUDY    14   7  73 SE13      30.42F WCI   0
BLAIR          CLOUDY    11   4  74 E9        30.53F WCI  -1
COLUMBUS *     CLOUDY    14   0  52 SE10      30.49F WCI   1
FREMONT        CLOUDY    12   2  64 SE8       30.54F WCI   1
TEKAMAH        CLOUDY     9   2  73 SE13      30.57F WCI  -7
WAYNE          CLOUDY     9   1  69 SE15      30.51S WCI  -7
$$

NEZ050>053-065>068-078-088>093-131700-
SOUTHEAST NEBRASKA

CITY           SKY/WX    TMP DP  RH WIND       PRES   REMARKS
LINCOLN        CLOUDY    16   4  59 SE9       30.54F WCI   4
OMAHA EPPLEY   CLOUDY    12   3  67 SE9       30.58F WCI   0
BEATRICE       CLOUDY    17   2  51 E8        30.51F WCI   6
FALLS CITY     CLOUDY    16   3  56 E12       30.57F WCI   3
NEBRASKA CITY  CLOUDY    14   4  62 SE7       30.55F WCI   4
PLATTSMOUTH    CLOUDY    14   4  65 E8        30.54F WCI   2
$$

NEZ044-045-051>053-067-131700-
OMAHA AREA

CITY           SKY/WX    TMP DP  RH WIND       PRES   REMARKS
OMAHA EPPLEY   CLOUDY    12   3  67 SE9       30.58F WCI   0
BLAIR          CLOUDY    11   4  74 E9        30.53F WCI  -1
FREMONT        CLOUDY    12   2  64 SE8       30.54F WCI   1
MILLARD        CLOUDY    13   3  63 SE7       30.57F WCI   3
OFFUTT AFB     CLOUDY    13   3  62 E8        30.56F WCI   2
PLATTSMOUTH    CLOUDY    14   4  65 E8        30.54F WCI   2
WAHOO          CLOUDY    13   4  67 SE10      30.54S WCI   0
$$




USA.gov is the U.S. government's official web portal to all federal, state and local government web resources and services.